This demonstration page uses our WeatherBlox Daily Observations layout. Learn more.

Left ArrowRight Arrow

Hourly Observations for March 28, 2019

Temp ( °F °C ) Dew Point ( °F °C ) Humidity (%) Winds ( mph kmh ) Pressure ( in mb ) Visibility ( mi km ) Precip ( " mm )
12:57 am 00:57 Clear 48 8.9 43 6.1 83 83 NNE 9 15 29.98 1015 10 16 0.00 0.00
1:57 am 01:57 Clear 46 7.8 42 5.6 86 86 NE 7 11 30.01 1016 10 16 0.00 0.00
2:57 am 02:57 Mostly Cloudy 46 7.8 42 5.6 86 86 ENE 10 17 29.97 1015 10 16 0.00 0.00
3:57 am 03:57 Clear 45 7.2 41 5 86 86 NNE 13 20 29.96 1015 10 16 0.00 0.00
4:57 am 04:57 Clear 44 6.7 38 3.3 79 79 NE 12 19 29.96 1014 10 16 0.00 0.00
5:57 am 05:57 Mostly Clear 43 6.1 38 3.3 82 82 NE 15 24 29.96 1014 10 16 0.00 0.00
6:57 am 06:57 Partly Cloudy with Light Rain 43 6.1 39 3.9 86 86 NE 14 22 29.96 1015 10 16 0.00 0.03
7:57 am 07:57 Mostly Sunny 43 6.1 38 3.3 82 82 ENE 18 30 29.96 1015 10 16 0.00 0.03
8:57 am 08:57 Partly Cloudy 42 5.6 38 3.3 85 85 NE 23 37 29.97 1015 10 16 0.00 0.00
9:28 am 09:28 Mostly Cloudy 43 6 37 3 81 81 NE 18 30 30.06 1018 10 16 0.00 0.00
9:57 am 09:57 Cloudy 43 6.1 38 3.3 82 82 NNE 21 33 30.02 1017 10 16 0.00 0.00
10:57 am 10:57 Cloudy 43 6.1 37 2.8 80 80 NNE 25 41 30.06 1018 10 16 0.00 0.00
11:57 am 11:57 Cloudy 43 6.1 37 2.8 80 80 NNE 24 39 30.09 1019 10 16 0.00 0.00
12:57 pm 12:57 Cloudy 44 6.7 37 2.8 76 76 NNE 25 41 30.08 1019 10 16 0.00 0.00
1:57 pm 13:57 Cloudy 45 7.2 36 2.2 71 71 NNE 23 37 30.09 1019 10 16 0.00 0.00
2:57 pm 14:57 Cloudy 46 7.8 35 1.7 66 66 NNE 21 33 30.09 1019 10 16 0.00 0.00
3:28 pm 15:28 Cloudy 46 8 36 2 66 66 NE 23 37 30.10 1019 10 16 0.00 0.00
3:57 pm 15:57 Cloudy 46 7.8 36 2.2 68 68 NE 20 31 30.10 1019 10 16 0.00 0.00
4:57 pm 16:57 Cloudy 46 7.8 35 1.7 66 66 NE 18 30 30.11 1020 10 16 0.00 0.00
5:57 pm 17:57 Cloudy 46 7.8 35 1.7 66 66 NE 14 22 30.12 1020 10 16 0.00 0.00
6:57 pm 18:57 Cloudy 46 7.8 35 1.7 66 66 NE 13 20 30.12 1020 10 16 0.00 0.00
7:57 pm 19:57 Cloudy 46 7.8 36 2.2 68 68 NE 9 15 30.14 1021 10 16 0.00 0.00
8:57 pm 20:57 Cloudy 46 7.8 35 1.7 66 66 NE 13 20 30.15 1021 10 16 0.00 0.00
9:57 pm 21:57 Cloudy 45 7.2 35 1.7 68 68 NE 14 22 30.16 1021 10 16 0.00 0.00
10:57 pm 22:57 Cloudy 44 6.7 34 1.1 68 68 NE 13 20 30.17 1022 10 16 0.00 0.00
11:57 pm 23:57 Cloudy 43 6.1 34 1.1 71 71 ENE 15 24 30.17 1022 10 16 0.00 0.00

Powered by AerisWeather